SL-24 DEB, 39450

Orbit data source: Space-Track

SL-24 DEB, 39450 is space debris in SSO originally from a launch on Thu, 21 Nov 2013 UTC launched from the Orenburg, Russia (OREN). Debris objects in space refer to the collection of defunct objects orbiting the Earth. Examples of debris include non-operational satellites, rocket bodies, and fragments generated from explosions, collisions, or faulty payload assembly.

Loading next visibility...
Identifier
39450, 2013-066AL
Orbit
SSO
Country
Flag of CISCIS
Related business
Manufacturer
Yuzhnoe
Mission
Spacecraft
Bus & Motor
Unknown
Mass
Unknown
Launch date (UTC)
2013-11-21 (12 years ago)
Launch vehicle
Unknown
Launch site
Orenburg, Russia (OREN)
Object type
Payload
Rocket body
Debris
Shape & HBR
Unknown shape, 2.6 m
Radar Cross Section
Large (>1 m²)

Expand to show TLE details & history
Last TLE update: 13 hours ago

TLE from 13 hours ago
0 SL-24 DEB
1 39450U 13066AL  26037.53614598  .00018352  00000-0  71639-3 0  9994
2 39450  97.3975  44.8458 0007384  42.2281 317.9524 15.25934047667658
Epoch: 2026-02-06T12:52Z
TLE epoch observation values (Epoch: 2026-02-06T12:52:03.012Z)
Latitude
-0.00012°
Longitude
75.16065°
Altitude
487.317 km
Speed
7.624 km/s
True Right ascension
02h 59m 22s
True Declination
0° 00' 00"
Sunlit
Object was in daylight at epoch
Visualization orbit readout
Latitude
Unknown
Longitude
Unknown
Altitude
Unknown
Speed
Unknown
Apparent Right ascension
Unknown
Apparent Declination
Unknown
Sunlit
N/A
Visualization observer readout
Local Sidereal Time
04:21:07
Azimuth
Unknown
Elevation
Unknown
Doppler factor
Unknown
Orbital elements
Apogee altitude
490.007 km
Perigee altitude
479.872 km
Semi-major axis
6,863.077 km
Eccentricity
0.00074
Inclination
97.3975°
RAAN
44.8458°
Arg. of periapsis
42.2281°
True anomaly
317.89569°
Mean anomaly
317.9524°
Eccentric anomaly
317.92405°
Mean motion
3.81738 °/min
Orbital period
94.31 mins
BSTAR
0.00071639
Loading maneuver chart data...
Computing Atmospheric mass density...
Loading historical data...
Loading historical data...
Loading historical data...
Loading historical data...
Loading historical data...
Loading historical data...
Loading historical data...

Documentation

Showing up to 5 results
|